| time (UTC) | temp C | wind direction | speed KPH | gust KPH | rain 1hr cm | rain 24hr cm | rain mn cm | humidity % | barometer mb |
| 20260905174925 | 15 | 211 | 4.8 | 8.0 | 0.00 | 0.00 | 0.00 | 77 | 1019.1 |
| 20260905174421 | 15 | 278 | 3.2 | 8.0 | 0.00 | 0.00 | 0.00 | 76 | 1019.1 |
| 20260905173916 | 15 | 289 | 1.6 | 8.0 | 0.00 | 0.00 | 0.00 | 78 | 1019.1 |
| 20260905173412 | 15 | 255 | 4.8 | 9.7 | 0.00 | 0.00 | 0.00 | 77 | 1019.1 |
| 20260905172907 | 15 | 245 | 3.2 | 11.3 | 0.00 | 0.00 | 0.00 | 79 | 1019.5 |
| 20260905172404 | 15 | 326 | 8.0 | 8.0 | 0.00 | 0.00 | 0.00 | 79 | 1019.0 |
| 20260905171901 | 14 | 336 | 3.2 | 8.0 | 0.00 | 0.00 | 0.00 | 80 | 1019.3 |
| 20260905171357 | 14 | 83 | 0.0 | 8.0 | 0.00 | 0.00 | 0.00 | 81 | 1019.6 |
| 20260905170854 | 13 | 206 | 4.8 | 4.8 | 0.00 | 0.00 | 0.00 | 81 | 1019.2 |
| 20260905170349 | 13 | 322 | 9.7 | 9.7 | 0.00 | 0.00 | 0.00 | 82 | 1019.2 |
| 20260905165848 | 13 | 328 | 3.2 | 6.4 | 0.00 | 0.00 | 0.00 | 82 | 1019.7 |
| 20260905165343 | 13 | 354 | 1.6 | 6.4 | 0.00 | 0.00 | 0.00 | 83 | 1019.3 |
| 20260905164838 | 12 | 306 | 1.6 | 3.2 | 0.00 | 0.00 | 0.00 | 84 | 1019.3 |
| 20260905164333 | 12 | 277 | 1.6 | 3.2 | 0.00 | 0.00 | 0.00 | 85 | 1019.6 |
| 20260905163829 | 12 | 180 | 3.2 | 4.8 | 0.00 | 0.00 | 0.00 | 85 | 1019.5 |
| 20260905163325 | 12 | 286 | 1.6 | 8.0 | 0.00 | 0.00 | 0.00 | 85 | 1019.7 |
| 20260905162821 | 13 | 304 | 3.2 | 3.2 | 0.00 | 0.00 | 0.00 | 86 | 1019.6 |
| 20260905162320 | 12 | 299 | 4.8 | 6.4 | 0.00 | 0.00 | 0.00 | 85 | 1019.6 |
| 20260905161815 | 12 | 328 | 4.8 | 8.0 | 0.00 | 0.00 | 0.00 | 86 | 1019.7 |
| 20260905161314 | 12 | 246 | 3.2 | 4.8 | 0.00 | 0.00 | 0.00 | 88 | 1019.6 |
| 20260905160812 | 11 | 246 | 0.0 | 3.2 | 0.00 | 0.00 | 0.00 | 90 | 1019.5 |
| 20260905160307 | 11 | 262 | 0.0 | 3.2 | 0.00 | 0.00 | 0.00 | 90 | 1019.8 |
| 20260905155802 | 11 | 172 | 0.0 | 4.8 | 0.00 | 0.00 | 0.00 | 91 | 1019.6 |
| 20260905155301 | 11 | 253 | 4.8 | 4.8 | 0.00 | 0.00 | 0.00 | 91 | 1019.5 |
| 20260905154755 | 11 | 297 | 0.0 | 1.6 | 0.00 | 0.00 | 0.00 | 92 | 1019.7 |
| 20260905154251 | 10 | 24 | 3.2 | 4.8 | 0.00 | 0.00 | 0.00 | 92 | 1019.6 |
| 20260905153746 | 10 | 294 | 0.0 | 4.8 | 0.00 | 0.00 | 0.00 | 93 | 1019.6 |
| 20260905153242 | 10 | 45 | 3.2 | 4.8 | 0.00 | 0.00 | 0.00 | 94 | 1019.5 |
| 20260905152736 | 10 | 0 | 1.6 | 4.8 | 0.00 | 0.00 | 0.00 | 94 | 1019.7 |
| 20260905152231 | 10 | 311 | 0.0 | 3.2 | 0.00 | 0.00 | 0.00 | 95 | 1019.6 |
| 20260905151731 | 10 | 254 | 0.0 | 3.2 | 0.00 | 0.00 | 0.00 | 95 | 1019.8 |
| 20260905151227 | 10 | 36 | 4.8 | 4.8 | 0.00 | 0.00 | 0.00 | 95 | 1019.5 |
| 20260905150726 | 10 | 331 | 0.0 | 3.2 | 0.00 | 0.00 | 0.00 | 95 | 1019.5 |
| 20260905150226 | 10 | 11 | 0.0 | 4.8 | 0.00 | 0.00 | 0.00 | 95 | 1019.3 |
| 20260905145724 | 10 | 258 | 1.6 | 4.8 | 0.00 | 0.00 | 0.00 | 95 | 1019.1 |
| 20260905145219 | 10 | 14 | 0.0 | 3.2 | 0.00 | 0.00 | 0.00 | 95 | 1019.7 |
| 20260905144717 | 10 | 188 | 0.0 | 1.6 | 0.00 | 0.00 | 0.00 | 95 | 1019.5 |
| 20260905144212 | 10 | 294 | 0.0 | 3.2 | 0.00 | 0.00 | 0.00 | 94 | 1019.5 |
| 20260905143711 | 10 | 21 | 3.2 | 4.8 | 0.00 | 0.00 | 0.00 | 94 | 1019.6 |
| 20260905143206 | 10 | 240 | 0.0 | 3.2 | 0.00 | 0.00 | 0.00 | 94 | 1019.3 |
| 20260905142704 | 10 | 294 | 1.6 | 4.8 | 0.00 | 0.00 | 0.00 | 94 | 1019.0 |
| 20260905142159 | 10 | 12 | 0.0 | 3.2 | 0.00 | 0.00 | 0.00 | 94 | 1019.3 |
| 20260905141654 | 10 | 248 | 0.0 | 3.2 | 0.00 | 0.00 | 0.00 | 94 | 1019.1 |
| 20260905141150 | 10 | 259 | 8.0 | 8.0 | 0.00 | 0.00 | 0.00 | 94 | 1019.5 |
| 20260905140645 | 10 | 239 | 3.2 | 3.2 | 0.00 | 0.00 | 0.00 | 94 | 1019.0 |
| 20260905140145 | 10 | 225 | 4.8 | 4.8 | 0.00 | 0.00 | 0.00 | 93 | 1018.9 |
| 20260905135640 | 11 | 0 | 4.8 | 4.8 | 0.00 | 0.00 | 0.00 | 92 | 1018.9 |
| 20260905135135 | 10 | 49 | 3.2 | 6.4 | 0.00 | 0.00 | 0.00 | 92 | 1018.1 |
| 20260905134624 | 10 | 98 | 4.8 | 6.4 | 0.00 | 0.00 | 0.00 | 92 | 1018.7 |
| 20260905134123 | 10 | 330 | 4.8 | 4.8 | 0.00 | 0.00 | 0.00 | 94 | 1019.3 |
| 20260905133619 | 10 | 57 | 1.6 | 6.4 | 0.00 | 0.00 | 0.00 | 95 | 1018.7 |
| 20260905133119 | 10 | 14 | 0.0 | 1.6 | 0.00 | 0.00 | 0.00 | 95 | 1018.9 |
| 20260905132618 | 10 | 98 | 0.0 | 1.6 | 0.00 | 0.00 | 0.00 | 95 | 1018.5 |
| 20260905132113 | 10 | 90 | 0.0 | 3.2 | 0.00 | 0.00 | 0.00 | 95 | 1018.5 |
| 20260905131608 | 10 | 127 | 4.8 | 6.4 | 0.00 | 0.00 | 0.00 | 95 | 1018.1 |
| 20260905131103 | 10 | 45 | 3.2 | 4.8 | 0.00 | 0.00 | 0.00 | 94 | 1018.2 |
| 20260905130603 | 10 | 45 | 3.2 | 4.8 | 0.00 | 0.00 | 0.00 | 94 | 1018.3 |
| 20260905130058 | 10 | 14 | 3.2 | 6.4 | 0.00 | 0.00 | 0.00 | 93 | 1018.3 |
| 20260905125557 | 10 | 204 | 0.0 | 3.2 | 0.00 | 0.00 | 0.00 | 94 | 1018.3 |
| 20260905125053 | 10 | 219 | 3.2 | 6.4 | 0.00 | 0.00 | 0.00 | 95 | 1018.1 |
| 20260905124549 | 10 | 266 | 3.2 | 6.4 | 0.00 | 0.00 | 0.00 | 94 | 1018.1 |
| 20260905124045 | 10 | 270 | 3.2 | 4.8 | 0.00 | 0.00 | 0.00 | 94 | 1017.9 |
| 20260905123540 | 10 | 341 | 3.2 | 3.2 | 0.00 | 0.00 | 0.00 | 93 | 1018.0 |
| 20260905123037 | 10 | 11 | 4.8 | 6.4 | 0.00 | 0.00 | 0.00 | 93 | 1017.8 |
| 20260905122536 | 10 | 185 | 3.2 | 8.0 | 0.00 | 0.00 | 0.00 | 93 | 1017.7 |
| 20260905122031 | 10 | 90 | 0.0 | 4.8 | 0.00 | 0.00 | 0.00 | 94 | 1017.7 |
| 20260905121526 | 10 | 204 | 3.2 | 3.2 | 0.00 | 0.00 | 0.00 | 94 | 1018.0 |
| 20260905121021 | 10 | 255 | 1.6 | 4.8 | 0.00 | 0.00 | 0.00 | 94 | 1018.3 |
| 20260905120515 | 10 | 75 | 0.0 | 1.6 | 0.00 | 0.00 | 0.00 | 93 | 1018.2 |
| 20260905120010 | 10 | 54 | 1.6 | 4.8 | 0.00 | 0.00 | 0.00 | 93 | 1018.0 |
| 20260905115509 | 10 | 60 | 3.2 | 4.8 | 0.00 | 0.00 | 0.00 | 93 | 1017.8 |
| 20260905115004 | 10 | 106 | 1.6 | 9.7 | 0.00 | 0.00 | 0.00 | 94 | 1017.8 |
| 20260905114504 | 10 | 106 | 8.0 | 9.7 | 0.00 | 0.00 | 0.00 | 95 | 1017.6 |
| 20260905114003 | 10 | 28 | 3.2 | 4.8 | 0.00 | 0.00 | 0.00 | 95 | 1017.9 |
| 20260905113458 | 10 | 83 | 0.0 | 3.2 | 0.00 | 0.00 | 0.00 | 95 | 1018.1 |
| 20260905112953 | 10 | 103 | 3.2 | 3.2 | 0.00 | 0.00 | 0.00 | 95 | 1018.2 |
| 20260905112448 | 10 | 26 | 0.0 | 4.8 | 0.00 | 0.00 | 0.00 | 95 | 1017.9 |
| 20260905111943 | 10 | 106 | 0.0 | 3.2 | 0.00 | 0.00 | 0.00 | 95 | 1017.6 |
| 20260905111438 | 10 | 292 | 3.2 | 3.2 | 0.00 | 0.00 | 0.00 | 95 | 1017.7 |
| 20260905110937 | 10 | 29 | 3.2 | 4.8 | 0.00 | 0.00 | 0.00 | 95 | 1017.4 |
| 20260905110431 | 10 | 38 | 3.2 | 4.8 | 0.00 | 0.00 | 0.00 | 95 | 1017.8 |
| 20260905105931 | 10 | 96 | 1.6 | 3.2 | 0.00 | 0.00 | 0.00 | 94 | 1018.3 |
| 20260905105426 | 10 | 84 | 3.2 | 4.8 | 0.00 | 0.00 | 0.00 | 94 | 1017.8 |
| 20260905104925 | 10 | 109 | 0.0 | 4.8 | 0.00 | 0.00 | 0.00 | 94 | 1018.2 |
| 20260905104421 | 10 | 227 | 4.8 | 9.7 | 0.00 | 0.00 | 0.00 | 94 | 1017.9 |
| 20260905103916 | 10 | 264 | 4.8 | 12.9 | 0.00 | 0.00 | 0.00 | 95 | 1017.4 |
| 20260905103412 | 10 | 209 | 6.4 | 8.0 | 0.00 | 0.00 | 0.00 | 95 | 1017.0 |
| 20260905102907 | 10 | 25 | 6.4 | 14.5 | 0.00 | 0.00 | 0.00 | 95 | 1016.7 |
| 20260905102404 | 10 | 67 | 3.2 | 8.0 | 0.00 | 0.00 | 0.00 | 95 | 1017.4 |
| 20260905101858 | 10 | 109 | 0.0 | 1.6 | 0.00 | 0.00 | 0.00 | 95 | 1017.7 |
| 20260905101356 | 10 | 61 | 3.2 | 4.8 | 0.00 | 0.00 | 0.00 | 95 | 1018.2 |
| 20260905100851 | 10 | 98 | 3.2 | 6.4 | 0.00 | 0.00 | 0.00 | 95 | 1018.0 |
| 20260905100347 | 10 | 270 | 3.2 | 9.7 | 0.00 | 0.00 | 0.00 | 95 | 1018.3 |
| 20260905095846 | 10 | 285 | 8.0 | 9.7 | 0.00 | 0.00 | 0.00 | 95 | 1018.5 |
| 20260905095341 | 10 | 226 | 6.4 | 6.4 | 0.00 | 0.00 | 0.00 | 95 | 1018.1 |
| 20260905094836 | 10 | 105 | 8.0 | 9.7 | 0.00 | 0.00 | 0.00 | 95 | 1017.2 |
| 20260905094331 | 10 | 59 | 4.8 | 6.4 | 0.00 | 0.00 | 0.00 | 95 | 1017.4 |
| 20260905093830 | 10 | 57 | 3.2 | 4.8 | 0.00 | 0.00 | 0.00 | 95 | 1018.0 |
| 20260905093326 | 10 | 257 | 3.2 | 4.8 | 0.00 | 0.00 | 0.00 | 95 | 1017.9 |
| 20260905092822 | 10 | 197 | 3.2 | 4.8 | 0.00 | 0.00 | 0.00 | 95 | 1018.1 |
| 20260905092321 | 10 | 192 | 4.8 | 8.0 | 0.00 | 0.00 | 0.00 | 95 | 1018.0 |
| 20260905091817 | 10 | 68 | 4.8 | 4.8 | 0.00 | 0.00 | 0.00 | 95 | 1017.2 |
| 20260905091316 | 10 | 185 | 0.0 | 3.2 | 0.00 | 0.00 | 0.00 | 94 | 1017.5 |
| 20260905090814 | 10 | 68 | 3.2 | 4.8 | 0.00 | 0.00 | 0.00 | 94 | 1017.4 |
| 20260905090311 | 10 | 265 | 3.2 | 6.4 | 0.00 | 0.00 | 0.00 | 95 | 1018.0 |
| 20260905085805 | 10 | 99 | 3.2 | 4.8 | 0.00 | 0.00 | 0.00 | 94 | 1017.4 |
| 20260905085306 | 10 | 114 | 1.6 | 9.7 | 0.00 | 0.00 | 0.00 | 94 | 1017.2 |
| 20260905084800 | 10 | 68 | 4.8 | 4.8 | 0.00 | 0.00 | 0.00 | 94 | 1017.7 |
| 20260905084259 | 10 | 173 | 0.0 | 3.2 | 0.00 | 0.00 | 0.00 | 94 | 1018.6 |
| 20260905083755 | 10 | 124 | 0.0 | 3.2 | 0.00 | 0.00 | 0.00 | 94 | 1017.9 |
| 20260905083250 | 10 | 257 | 0.0 | 4.8 | 0.00 | 0.00 | 0.00 | 94 | 1017.9 |
| 20260905082745 | 10 | 108 | 8.0 | 8.0 | 0.00 | 0.00 | 0.00 | 94 | 1017.8 |
| 20260905082242 | 10 | 165 | 0.0 | 3.2 | 0.00 | 0.00 | 0.00 | 94 | 1018.0 |
| 20260905081736 | 10 | 75 | 3.2 | 4.8 | 0.00 | 0.00 | 0.00 | 94 | 1017.7 |
| 20260905081231 | 10 | 90 | 0.0 | 8.0 | 0.00 | 0.00 | 0.00 | 94 | 1018.0 |
| 20260905080731 | 10 | 170 | 3.2 | 4.8 | 0.00 | 0.00 | 0.00 | 94 | 1018.1 |
| 20260905080231 | 10 | 248 | 4.8 | 4.8 | 0.00 | 0.00 | 0.00 | 93 | 1017.7 |
| 20260905075730 | 10 | 31 | 4.8 | 4.8 | 0.00 | 0.00 | 0.00 | 92 | 1017.6 |
| 20260905075229 | 10 | 100 | 3.2 | 8.0 | 0.00 | 0.00 | 0.00 | 92 | 1018.2 |
| 20260905074728 | 10 | 105 | 8.0 | 11.3 | 0.00 | 0.00 | 0.00 | 92 | 1017.9 |
| 20260905074224 | 10 | 120 | 4.8 | 11.3 | 0.00 | 0.00 | 0.00 | 93 | 1017.7 |
| 20260905073719 | 10 | 90 | 1.6 | 3.2 | 0.00 | 0.00 | 0.00 | 93 | 1017.6 |
| 20260905073215 | 10 | 129 | 4.8 | 9.7 | 0.00 | 0.00 | 0.00 | 94 | 1017.7 |
| 20260905072714 | 10 | 126 | 0.0 | 4.8 | 0.00 | 0.00 | 0.00 | 94 | 1017.4 |
| 20260905072210 | 10 | 123 | 0.0 | 1.6 | 0.00 | 0.00 | 0.00 | 93 | 1017.7 |
| 20260905071706 | 10 | 98 | 0.0 | 1.6 | 0.00 | 0.00 | 0.00 | 93 | 1017.8 |
| 20260905071202 | 10 | 103 | 4.8 | 6.4 | 0.00 | 0.00 | 0.00 | 93 | 1017.6 |
| 20260905070656 | 10 | 110 | 6.4 | 9.7 | 0.00 | 0.00 | 0.00 | 93 | 1017.5 |
| 20260905070153 | 10 | 98 | 4.8 | 6.4 | 0.00 | 0.00 | 0.00 | 93 | 1017.7 |
| 20260905065651 | 10 | 99 | 4.8 | 4.8 | 0.00 | 0.00 | 0.00 | 93 | 1017.8 |
| 20260905065145 | 10 | 114 | 0.0 | 3.2 | 0.00 | 0.00 | 0.00 | 93 | 1017.5 |
| 20260905064641 | 10 | 103 | 3.2 | 8.0 | 0.00 | 0.00 | 0.00 | 94 | 1017.9 |
| 20260905064137 | 10 | 85 | 3.2 | 4.8 | 0.00 | 0.00 | 0.00 | 94 | 1017.9 |
| 20260905063635 | 10 | 106 | 1.6 | 3.2 | 0.00 | 0.00 | 0.00 | 93 | 1017.9 |
| 20260905063132 | 10 | 135 | 0.0 | 3.2 | 0.00 | 0.00 | 0.00 | 93 | 1017.8 |
| 20260905062627 | 10 | 176 | 0.0 | 4.8 | 0.00 | 0.00 | 0.00 | 92 | 1017.8 |
| 20260905062126 | 10 | 285 | 0.0 | 3.2 | 0.00 | 0.00 | 0.00 | 92 | 1017.7 |
| 20260905061620 | 10 | 252 | 3.2 | 6.4 | 0.00 | 0.00 | 0.00 | 92 | 1017.9 |
| 20260905061115 | 10 | 131 | 4.8 | 14.5 | 0.00 | 0.00 | 0.00 | 92 | 1017.7 |
| 20260905060610 | 10 | 102 | 8.0 | 12.9 | 0.00 | 0.00 | 0.00 | 92 | 1017.6 |
| 20260905060107 | 10 | 122 | 8.0 | 11.3 | 0.00 | 0.00 | 0.00 | 91 | 1017.2 |
| 20260905055605 | 10 | 81 | 9.7 | 14.5 | 0.00 | 0.51 | 0.51 | 91 | 1017.6 |
| 20260905055100 | 10 | 105 | 6.4 | 14.5 | 0.00 | 0.51 | 0.51 | 92 | 1017.5 |
| 20260905054556 | 10 | 97 | 8.0 | 16.1 | 0.00 | 0.51 | 0.51 | 93 | 1017.4 |
| 20260905054051 | 10 | 76 | 9.7 | 14.5 | 0.00 | 0.51 | 0.51 | 93 | 1017.5 |
| 20260905053550 | 10 | 119 | 3.2 | 11.3 | 0.00 | 0.51 | 0.51 | 93 | 1017.4 |
| 20260905053046 | 10 | 92 | 9.7 | 11.3 | 0.00 | 0.51 | 0.51 | 93 | 1017.6 |
| 20260905052545 | 10 | 103 | 11.3 | 12.9 | 0.00 | 0.51 | 0.51 | 92 | 1017.5 |
| 20260905052040 | 10 | 113 | 6.4 | 12.9 | 0.00 | 0.51 | 0.51 | 93 | 1017.5 |
| 20260905051536 | 10 | 100 | 6.4 | 11.3 | 0.00 | 0.51 | 0.51 | 93 | 1017.1 |
| 20260905051032 | 10 | 96 | 8.0 | 12.9 | 0.00 | 0.51 | 0.51 | 92 | 1017.5 |
| 20260905050528 | 10 | 110 | 9.7 | 16.1 | 0.00 | 0.51 | 0.51 | 92 | 1017.7 |
| 20260905050025 | 10 | 93 | 4.8 | 11.3 | 0.00 | 0.51 | 0.51 | 92 | 1017.9 |
| 20260905045519 | 10 | 98 | 3.2 | 12.9 | 0.00 | 0.51 | 0.51 | 91 | 1017.8 |
| 20260905045015 | 10 | 107 | 6.4 | 9.7 | 0.00 | 0.51 | 0.51 | 91 | 1017.8 |
| 20260905044515 | 10 | 111 | 8.0 | 12.9 | 0.00 | 0.51 | 0.51 | 91 | 1017.7 |
| 20260905044015 | 10 | 112 | 3.2 | 8.0 | 0.00 | 0.51 | 0.51 | 91 | 1017.9 |
| 20260905043513 | 10 | 117 | 4.8 | 14.5 | 0.00 | 0.51 | 0.51 | 91 | 1017.7 |
| 20260905043004 | 10 | 103 | 4.8 | 12.9 | 0.00 | 0.51 | 0.51 | 91 | 1017.7 |
| 20260905042502 | 10 | 83 | 4.8 | 6.4 | 0.00 | 0.51 | 0.51 | 92 | 1017.7 |
| 20260905041958 | 11 | 90 | 3.2 | 4.8 | 0.00 | 0.51 | 0.51 | 91 | 1017.7 |
| 20260905041454 | 11 | 172 | 0.0 | 3.2 | 0.00 | 0.51 | 0.51 | 90 | 1017.5 |
| 20260905040949 | 11 | 105 | 1.6 | 3.2 | 0.00 | 0.51 | 0.51 | 87 | 1017.4 |
| 20260905040448 | 11 | 270 | 0.0 | 3.2 | 0.00 | 0.51 | 0.51 | 87 | 1017.2 |
| 20260905035947 | 11 | 152 | 0.0 | 9.7 | 0.00 | 0.51 | 0.51 | 88 | 1017.2 |
| 20260905035442 | 11 | 103 | 6.4 | 14.5 | 0.00 | 0.51 | 0.51 | 88 | 1017.4 |
| 20260905034940 | 11 | 102 | 6.4 | 20.9 | 0.00 | 0.51 | 0.51 | 90 | 1017.5 |
| 20260905034435 | 11 | 180 | 0.0 | 4.8 | 0.00 | 0.51 | 0.51 | 91 | 1017.5 |
| 20260905033933 | 11 | 41 | 3.2 | 4.8 | 0.00 | 0.51 | 0.51 | 91 | 1017.8 |
| 20260905033428 | 11 | 142 | 0.0 | 4.8 | 0.00 | 0.51 | 0.51 | 92 | 1018.0 |
| 20260905032928 | 11 | 131 | 8.0 | 9.7 | 0.00 | 0.51 | 0.51 | 92 | 1017.7 |
| 20260905032424 | 11 | 131 | 8.0 | 16.1 | 0.00 | 0.51 | 0.51 | 93 | 1017.6 |
| 20260905031919 | 11 | 118 | 11.3 | 20.9 | 0.00 | 0.51 | 0.51 | 92 | 1017.7 |
| 20260905031415 | 11 | 118 | 9.7 | 16.1 | 0.00 | 0.51 | 0.51 | 92 | 1017.7 |
| 20260905030909 | 11 | 116 | 14.5 | 19.3 | 0.00 | 0.51 | 0.51 | 93 | 1017.7 |
| 20260905030400 | 11 | 113 | 11.3 | 20.9 | 0.00 | 0.51 | 0.51 | 93 | 1017.6 |
| 20260905025858 | 11 | 110 | 9.7 | 14.5 | 0.00 | 0.51 | 0.51 | 93 | 1017.7 |
| 20260905025354 | 11 | 115 | 16.1 | 19.3 | 0.00 | 0.51 | 0.51 | 94 | 1018.1 |
| 20260905024850 | 11 | 111 | 11.3 | 16.1 | 0.00 | 0.51 | 0.51 | 94 | 1018.0 |
| 20260905024350 | 11 | 115 | 12.9 | 19.3 | 0.05 | 0.51 | 0.51 | 94 | 1018.2 |
| 20260905023846 | 11 | 126 | 8.0 | 16.1 | 0.05 | 0.51 | 0.51 | 93 | 1018.0 |
| 20260905023341 | 11 | 114 | 11.3 | 20.9 | 0.05 | 0.51 | 0.51 | 93 | 1018.0 |
| 20260905022839 | 11 | 127 | 6.4 | 19.3 | 0.13 | 0.51 | 0.51 | 92 | 1017.9 |
| 20260905022336 | 11 | 127 | 12.9 | 19.3 | 0.05 | 0.51 | 0.51 | 91 | 1017.8 |
| 20260905021830 | 11 | 103 | 9.7 | 19.3 | 0.05 | 0.48 | 0.48 | 91 | 1017.8 |
| 20260905021325 | 11 | 125 | 8.0 | 11.3 | 0.05 | 0.48 | 0.48 | 92 | 1017.8 |
| 20260905020820 | 11 | 128 | 6.4 | 12.9 | 0.00 | 0.48 | 0.48 | 91 | 1017.9 |
| 20260905020315 | 11 | 122 | 8.0 | 16.1 | 0.00 | 0.48 | 0.48 | 91 | 1017.6 |
| 20260905015814 | 12 | 109 | 6.4 | 6.4 | 0.00 | 0.48 | 0.48 | 91 | 1017.8 |
| 20260905015314 | 12 | 82 | 0.0 | 1.6 | 0.00 | 0.48 | 0.48 | 90 | 1017.7 |
| 20260905014813 | 12 | 116 | 6.4 | 8.0 | 0.00 | 0.48 | 0.48 | 90 | 1017.2 |
| 20260905014309 | 12 | 112 | 8.0 | 8.0 | 0.00 | 0.48 | 0.48 | 92 | 1017.2 |
| 20260905013804 | 12 | 95 | 3.2 | 3.2 | 0.00 | 0.48 | 0.48 | 91 | 1017.1 |
| 20260905013300 | 12 | 90 | 1.6 | 1.6 | 0.00 | 0.48 | 0.48 | 91 | 1017.0 |
| 20260905012755 | 12 | 99 | 0.0 | 1.6 | 0.05 | 0.48 | 0.48 | 90 | 1016.8 |
| 20260905012251 | 12 | 99 | 0.0 | 3.2 | 0.18 | 0.48 | 0.48 | 89 | 1016.6 |
| 20260905011747 | 12 | 124 | 3.2 | 4.8 | 0.43 | 0.46 | 0.46 | 86 | 1016.5 |
| 20260905011243 | 13 | 61 | 6.4 | 6.4 | 0.48 | 0.46 | 0.46 | 82 | 1016.5 |
| 20260905010737 | 13 | 315 | 3.2 | 9.7 | 0.43 | 0.41 | 0.41 | 79 | 1017.1 |
| 20260905010232 | 15 | 246 | 16.1 | 17.7 | 0.36 | 0.36 | 0.36 | 72 | 1017.5 |
| 20260905005729 | 16 | 260 | 11.3 | 14.5 | 0.13 | 0.33 | 0.33 | 62 | 1016.9 |
| 20260905005225 | 16 | 256 | 8.0 | 16.1 | 0.00 | 0.30 | 0.30 | 56 | 1016.1 |
| 20260905004719 | 16 | 250 | 6.4 | 11.3 | 0.00 | 0.30 | 0.30 | 55 | 1015.7 |
| 20260905004214 | 16 | 323 | 8.0 | 9.7 | 0.00 | 0.30 | 0.30 | 53 | 1015.4 |
| 20260905003714 | 16 | 292 | 4.8 | 9.7 | 0.00 | 0.30 | 0.30 | 54 | 1015.0 |
| 20260905003210 | 17 | 266 | 4.8 | 11.3 | 0.00 | 0.30 | 0.30 | 53 | 1014.9 |
| 20260905002706 | 17 | 291 | 0.0 | 9.7 | 0.00 | 0.30 | 0.30 | 53 | 1014.9 |
| 20260905002205 | 17 | 315 | 4.8 | 9.7 | 0.00 | 0.30 | 0.30 | 52 | 1015.0 |
| 20260905001701 | 17 | 294 | 0.0 | 9.7 | 0.00 | 0.30 | 0.30 | 54 | 1015.4 |
| 20260905001200 | 17 | 287 | 4.8 | 12.9 | 0.00 | 0.30 | 0.30 | 53 | 1015.0 |
| 20260905000655 | 17 | 253 | 6.4 | 11.3 | 0.00 | 0.30 | 0.30 | 53 | 1014.9 |
| 20260905000151 | 17 | 296 | 4.8 | 14.5 | 0.00 | 0.30 | 0.30 | 53 | 1014.9 |
| 20260904235651 | 17 | 263 | 8.0 | 17.7 | 0.00 | 0.30 | 0.30 | 52 | 1014.9 |
| 20260904235150 | 17 | 268 | 14.5 | 22.5 | 0.00 | 0.30 | 0.30 | 52 | 1014.8 |
| 20260904234646 | 17 | 323 | 3.2 | 16.1 | 0.00 | 0.30 | 0.30 | 52 | 1014.9 |
| 20260904234141 | 17 | 275 | 3.2 | 12.9 | 0.00 | 0.30 | 0.30 | 50 | 1015.1 |
| 20260904233637 | 17 | 303 | 4.8 | 12.9 | 0.00 | 0.30 | 0.30 | 51 | 1014.8 |
| 20260904233133 | 17 | 282 | 8.0 | 19.3 | 0.00 | 0.30 | 0.30 | 50 | 1014.6 |
| 20260904232629 | 18 | 281 | 6.4 | 14.5 | 0.00 | 0.30 | 0.30 | 50 | 1014.9 |
| 20260904232125 | 18 | 347 | 4.8 | 9.7 | 0.00 | 0.30 | 0.30 | 48 | 1014.6 |
| 20260904231620 | 18 | 334 | 4.8 | 11.3 | 0.00 | 0.30 | 0.30 | 47 | 1014.6 |
| 20260904231115 | 20 | 257 | 3.2 | 6.4 | 0.00 | 0.30 | 0.30 | 48 | 1014.5 |
| 20260904230614 | 19 | 254 | 4.8 | 17.7 | 0.00 | 0.30 | 0.30 | 47 | 1014.6 |
| 20260904230110 | 19 | 261 | 6.4 | 14.5 | 0.00 | 0.30 | 0.30 | 48 | 1014.6 |
| 20260904225607 | 19 | 275 | 0.0 | 11.3 | 0.00 | 0.30 | 0.30 | 48 | 1014.6 |
| 20260904225103 | 18 | 270 | 0.0 | 16.1 | 0.00 | 0.30 | 0.30 | 49 | 1014.6 |
| 20260904224557 | 18 | 274 | 8.0 | 9.7 | 0.00 | 0.30 | 0.30 | 50 | 1014.8 |
| 20260904224052 | 18 | 280 | 8.0 | 9.7 | 0.00 | 0.30 | 0.30 | 50 | 1014.5 |
| 20260904223551 | 18 | 20 | 4.8 | 6.4 | 0.00 | 0.30 | 0.30 | 50 | 1015.1 |
| 20260904223047 | 18 | 262 | 8.0 | 9.7 | 0.00 | 0.30 | 0.30 | 49 | 1014.9 |
| 20260904222543 | 18 | 291 | 8.0 | 12.9 | 0.00 | 0.30 | 0.30 | 51 | 1014.6 |
| 20260904222038 | 17 | 278 | 6.4 | 17.7 | 0.00 | 0.30 | 0.30 | 52 | 1014.8 |
| 20260904221532 | 17 | 270 | 4.8 | 16.1 | 0.00 | 0.30 | 0.30 | 52 | 1014.7 |
| 20260904221027 | 17 | 301 | 6.4 | 19.3 | 0.00 | 0.30 | 0.30 | 53 | 1014.7 |
| 20260904220526 | 18 | 298 | 9.7 | 17.7 | 0.00 | 0.30 | 0.30 | 51 | 1014.5 |
| 20260904220023 | 18 | 328 | 3.2 | 6.4 | 0.00 | 0.30 | 0.30 | 50 | 1014.1 |
| 20260904215522 | 18 | 227 | 4.8 | 16.1 | 0.00 | 0.30 | 0.30 | 51 | 1014.6 |
| 20260904215018 | 18 | 279 | 6.4 | 20.9 | 0.00 | 0.30 | 0.30 | 51 | 1014.6 |
| 20260904214513 | 18 | 279 | 4.8 | 8.0 | 0.00 | 0.30 | 0.30 | 50 | 1014.5 |
| 20260904214009 | 18 | 285 | 8.0 | 14.5 | 0.00 | 0.30 | 0.30 | 50 | 1014.4 |
| 20260904213506 | 18 | 310 | 6.4 | 11.3 | 0.00 | 0.30 | 0.30 | 51 | 1014.2 |
| 20260904213004 | 18 | 324 | 4.8 | 8.0 | 0.00 | 0.30 | 0.30 | 53 | 1014.5 |
| 20260904212502 | 18 | 311 | 3.2 | 12.9 | 0.00 | 0.30 | 0.30 | 51 | 1014.7 |
| 20260904211958 | 18 | 331 | 8.0 | 11.3 | 0.00 | 0.30 | 0.30 | 53 | 1014.6 |
| 20260904211452 | 17 | 274 | 8.0 | 17.7 | 0.00 | 0.30 | 0.30 | 55 | 1014.5 |
| 20260904210948 | 18 | 270 | 6.4 | 12.9 | 0.00 | 0.30 | 0.30 | 53 | 1014.6 |
| 20260904210447 | 18 | 335 | 9.7 | 12.9 | 0.00 | 0.30 | 0.30 | 53 | 1014.6 |
| 20260904205943 | 18 | 272 | 8.0 | 11.3 | 0.00 | 0.30 | 0.30 | 53 | 1014.8 |
| 20260904205438 | 18 | 281 | 9.7 | 14.5 | 0.00 | 0.30 | 0.30 | 53 | 1014.7 |
| 20260904204935 | 18 | 270 | 8.0 | 9.7 | 0.00 | 0.30 | 0.30 | 56 | 1014.8 |
| 20260904204431 | 18 | 0 | 4.8 | 6.4 | 0.00 | 0.30 | 0.30 | 54 | 1014.8 |
| 20260904203927 | 18 | 329 | 4.8 | 8.0 | 0.00 | 0.30 | 0.30 | 55 | 1014.8 |
| 20260904203423 | 17 | 180 | 0.0 | 8.0 | 0.00 | 0.30 | 0.30 | 55 | 1014.9 |
| 20260904202918 | 17 | 349 | 8.0 | 9.7 | 0.00 | 0.30 | 0.30 | 56 | 1014.9 |
| 20260904202414 | 16 | 293 | 4.8 | 8.0 | 0.00 | 0.30 | 0.30 | 57 | 1014.9 |
| 20260904201910 | 17 | 4 | 3.2 | 8.0 | 0.00 | 0.30 | 0.30 | 56 | 1014.9 |
| 20260904201405 | 17 | 5 | 4.8 | 6.4 | 0.00 | 0.30 | 0.30 | 56 | 1014.9 |
| 20260904200901 | 17 | 143 | 3.2 | 8.0 | 0.00 | 0.30 | 0.30 | 57 | 1014.8 |
| 20260904200359 | 17 | 321 | 4.8 | 8.0 | 0.00 | 0.30 | 0.30 | 58 | 1015.0 |
| 20260904195854 | 17 | 290 | 3.2 | 8.0 | 0.00 | 0.30 | 0.30 | 58 | 1015.1 |
| 20260904195352 | 17 | 255 | 4.8 | 9.7 | 0.00 | 0.30 | 0.30 | 62 | 1015.2 |
| 20260904194847 | 17 | 261 | 0.0 | 8.0 | 0.00 | 0.30 | 0.30 | 58 | 1015.0 |
| 20260904194346 | 16 | 254 | 1.6 | 8.0 | 0.00 | 0.30 | 0.30 | 62 | 1014.8 |
| 20260904193841 | 16 | 319 | 6.4 | 14.5 | 0.00 | 0.30 | 0.30 | 60 | 1014.9 |
| 20260904193337 | 16 | 337 | 8.0 | 9.7 | 0.00 | 0.30 | 0.30 | 61 | 1015.1 |
| 20260904192832 | 16 | 6 | 4.8 | 9.7 | 0.00 | 0.30 | 0.30 | 65 | 1015.1 |
| 20260904192327 | 17 | 73 | 11.3 | 11.3 | 0.00 | 0.30 | 0.30 | 63 | 1015.1 |
| 20260904191824 | 16 | 297 | 0.0 | 9.7 | 0.00 | 0.30 | 0.30 | 61 | 1015.1 |
| 20260904191320 | 16 | 140 | 0.0 | 8.0 | 0.00 | 0.30 | 0.30 | 62 | 1015.4 |
| 20260904190817 | 15 | 327 | 3.2 | 8.0 | 0.00 | 0.30 | 0.30 | 65 | 1015.4 |
| 20260904190312 | 16 | 210 | 0.0 | 9.7 | 0.00 | 0.30 | 0.30 | 62 | 1015.2 |
| 20260904185808 | 16 | 294 | 4.8 | 6.4 | 0.00 | 0.30 | 0.30 | 66 | 1015.5 |
| 20260904185306 | 15 | 349 | 3.2 | 6.4 | 0.00 | 0.30 | 0.30 | 65 | 1015.5 |
| 20260904184803 | 15 | 334 | 3.2 | 3.2 | 0.00 | 0.30 | 0.30 | 67 | 1015.4 |
| 20260904184258 | 15 | 348 | 6.4 | 6.4 | 0.00 | 0.30 | 0.30 | 70 | 1015.6 |
| 20260904183753 | 15 | 74 | 1.6 | 4.8 | 0.00 | 0.30 | 0.30 | 69 | 1015.4 |
| 20260904183248 | 15 | 8 | 3.2 | 9.7 | 0.00 | 0.30 | 0.30 | 68 | 1015.6 |
| 20260904182743 | 15 | 0 | 6.4 | 8.0 | 0.00 | 0.30 | 0.30 | 67 | 1015.4 |
| 20260904182238 | 15 | 266 | 4.8 | 6.4 | 0.00 | 0.30 | 0.30 | 66 | 1015.2 |
| 20260904181734 | 16 | 305 | 4.8 | 8.0 | 0.00 | 0.30 | 0.30 | 67 | 1015.5 |
| 20260904181233 | 15 | 54 | 0.0 | 6.4 | 0.00 | 0.30 | 0.30 | 66 | 1015.4 |
| 20260904180729 | 15 | 300 | 3.2 | 6.4 | 0.00 | 0.30 | 0.30 | 68 | 1015.4 |
| 20260904180224 | 14 | 270 | 3.2 | 4.8 | 0.00 | 0.30 | 0.30 | 70 | 1015.7 |
| 20260904175723 | 14 | 315 | 3.2 | 8.0 | 0.00 | 0.30 | 0.30 | 69 | 1015.5 |